1998-067WK (59560 NORAD) Tracking and Keplerian Element Data

This shows tracking and keplerian element data for the satellite.

Feedback or suggestion? Click here.




ElementValue
Catalog59560
Name1998-067WK
Epoch Orbit782
Epoch Day159.81715892
Epoch Year2024
RAAN359.0603
Inclination51.637
Eccentricity0.0011117
Argument of Perigee243.7396
Mean Anonmoly116.2457
Mean Motion15.65542384
Decay Rate0.00192402
L11 59560U 98067WK 24159.81715892 .00192402 00000+0 18359-2 0 9992
L22 59560 51.6370 359.0603 0011117 243.7396 116.2457 15.65542384 7826



Live tracking and technical data element details for 1998-067WK (NORAD 59560). 1998-067WK can be tracked NOW for your location showing map with azimuth and elevation plus other details from your city location.







IsCatalogInMostPopularTable: catalog: 59560, numindb: 13
Update: records affected: 1



GetName: 59560 1998-067WK

Hit Count: updated at: Fri, 14 Jun 2024 18:58:33 GMT